Date String (YYYY-MM-DD hh:mm:ss) UTC,Instrument flags,absolute air pressure of the measurement (hPa),sample flow rate (lpm),inlet stack bypass flow (lpm),air temperature of the measurement (°C),ambient temperature measured by the external sensor (°C),aerosol sample conditioner tube jacket temperature (°C),OPC LED temperature (°C),internal box temperature (°C),relative humidity of the measurement (%),span deviation,mass concentration of particles derived from Lorenz-Mie calculation of OPC scattering (μg/m³),mass concentration of particles derived from Lorenz-Mie calculation of OPC scattering (μg/m³),mass concentration of particles derived from Lorenz-Mie calculation of OPC scattering (μg/m³)
DateTimeUTC,F1_M11,P_M11,Q1_M11,Q2_M11,T1_M11,T2_M11,T3_M11,T4_M11,T5_M11,U1_M11,ZSPAN_M11,X2_M11,X0_M11,X1_M11
2024-06-16 12:00:00,SystemResetWarning,0823.8,5.00,000.00,030.5,029.9,000.0,038.8,032.2,016.8,0004.9,0008.15,0019.95,0007.06
2024-06-16 12:01:00,SystemResetWarning,0823.8,5.00,000.00,030.5,029.9,000.0,038.9,032.3,016.4,0004.9,0008.25,0018.95,0007.25
2024-06-16 12:02:00,SystemResetWarning,0823.8,5.00,000.00,030.6,029.9,000.0,038.9,032.3,016.2,0005.0,0008.50,0018.37,0007.52
2024-06-16 12:03:00,SystemResetWarning,0823.8,5.00,000.00,030.6,029.9,000.0,038.9,032.3,015.9,0004.7,0008.77,0017.87,0007.81
2024-06-16 12:04:00,SystemResetWarning,0823.8,5.00,000.00,030.6,029.9,000.0,038.9,032.3,015.8,0004.4,0009.01,0015.95,0008.09
2024-06-16 12:05:00,SystemResetWarning,0823.8,5.01,000.00,030.6,030.0,000.0,038.9,032.3,015.8,0003.7,0009.23,0016.18,0008.33
2024-06-16 12:06:00,SystemResetWarning,0823.8,5.00,000.00,030.6,030.0,000.0,038.9,032.3,015.6,0003.5,0009.39,0015.93,0008.56
2024-06-16 12:07:00,SystemResetWarning,0823.8,5.00,000.00,030.7,030.0,000.0,038.9,032.4,015.5,0003.3,0009.55,0015.44,0008.76
2024-06-16 12:08:00,SystemResetWarning,0823.8,5.00,000.00,030.7,030.0,000.0,039.0,032.4,015.5,0003.2,0009.73,0015.17,0008.96
2024-06-16 12:09:00,SystemResetWarning,0823.8,5.01,000.00,030.7,030.0,000.0,039.0,032.4,015.4,0003.2,0009.83,0014.52,0009.10
2024-06-16 12:10:00,SystemResetWarning,0823.8,5.01,000.00,030.7,030.1,000.0,039.0,032.4,015.3,0003.1,0009.93,0014.38,0009.23
2024-06-16 12:11:00,SystemResetWarning,0823.8,5.00,000.00,030.7,030.1,000.0,039.0,032.5,015.3,0003.0,0010.15,0014.08,0009.41
2024-06-16 12:12:00,SystemResetWarning,0823.9,4.99,000.00,030.7,030.1,000.0,039.0,032.5,015.5,0003.1,0010.36,0014.24,0009.59
2024-06-16 12:13:00,SystemResetWarning,0823.9,5.00,000.00,030.8,030.1,000.0,039.0,032.5,015.6,0003.0,0010.44,0014.43,0009.66
2024-06-16 12:14:00,SystemResetWarning,0823.9,4.99,000.00,030.8,030.1,000.0,039.1,032.5,015.5,0003.1,0010.41,0014.53,0009.65
2024-06-16 12:15:00,SystemResetWarning,0823.9,5.01,000.00,030.8,030.1,000.0,039.1,032.5,015.4,0003.4,0010.35,0014.70,0009.60
2024-06-16 12:16:00,SystemResetWarning,0823.9,5.01,000.00,030.8,030.1,000.0,039.1,032.5,015.4,0004.0,0010.28,0014.96,0009.54
2024-06-16 12:17:00,SystemResetWarning,0823.9,5.01,000.00,030.8,030.2,000.0,039.1,032.5,015.5,0004.2,0010.18,0014.82,0009.46
2024-06-16 12:18:00,SystemResetWarning,0823.9,5.00,000.00,030.8,030.2,000.0,039.1,032.5,015.5,0004.1,0010.09,0014.73,0009.38
2024-06-16 12:19:00,SystemResetWarning,0823.9,4.98,000.00,030.8,030.2,000.0,039.1,032.5,015.7,0004.0,0009.99,0014.69,0009.28
2024-06-16 12:20:00,SystemResetWarning,0824.0,5.00,000.00,030.9,030.2,000.0,039.1,032.5,015.7,0003.8,0009.87,0014.60,0009.16
2024-06-16 12:21:00,SystemResetWarning,0824.0,5.01,000.00,030.9,030.2,000.0,039.2,032.6,015.6,0003.8,0009.74,0014.29,0009.02
2024-06-16 12:22:00,SystemResetWarning,0824.0,5.00,000.00,030.9,030.2,000.0,039.2,032.6,015.6,0003.7,0009.63,0014.16,0008.90
2024-06-16 12:23:00,SystemResetWarning,0824.0,5.01,000.00,030.9,030.2,000.0,039.2,032.5,015.6,0003.8,0009.50,0014.31,0008.74
2024-06-16 12:24:00,SystemResetWarning,0823.9,5.00,000.00,030.9,030.2,000.0,039.2,032.6,015.6,0003.9,0009.38,0014.64,0008.62
2024-06-16 12:25:00,SystemResetWarning,0824.0,4.99,000.00,030.9,030.3,000.0,039.2,032.6,015.5,0004.1,0009.33,0014.76,0008.54
2024-06-16 12:26:00,SystemResetWarning,0823.9,5.00,000.00,030.9,030.3,000.0,039.2,032.6,015.5,0004.1,0009.29,0014.93,0008.47
2024-06-16 12:27:00,SystemResetWarning,0823.9,5.00,000.00,030.9,030.3,000.0,039.2,032.6,015.5,0003.7,0009.20,0014.42,0008.38
2024-06-16 12:28:00,SystemResetWarning,0824.0,5.00,000.00,031.0,030.3,000.0,039.2,032.6,015.5,0003.5,0009.15,0014.43,0008.33
2024-06-16 12:29:00,SystemResetWarning,0824.0,5.00,000.00,031.0,030.3,000.0,039.3,032.7,015.5,0003.6,0009.11,0014.60,0008.30
2024-06-16 12:30:00,SystemResetWarning,0824.0,5.00,000.00,031.0,030.3,000.0,039.3,032.7,015.5,0004.0,0009.03,0014.52,0008.26
2024-06-16 12:31:00,SystemResetWarning,0824.0,5.01,000.00,031.0,030.3,000.0,039.3,032.7,015.5,0004.0,0009.00,0014.52,0008.26
2024-06-16 12:32:00,SystemResetWarning,0824.0,5.01,000.00,031.0,030.3,000.0,039.3,032.7,015.5,0003.6,0009.00,0014.71,0008.26
2024-06-16 12:33:00,SystemResetWarning,0823.9,4.99,000.00,031.0,030.3,000.0,039.3,032.7,015.5,0003.7,0008.97,0014.61,0008.25
2024-06-16 12:34:00,SystemResetWarning,0824.0,4.99,000.00,031.0,030.4,000.0,039.3,032.7,015.5,0003.6,0008.97,0014.53,0008.26
2024-06-16 12:35:00,SystemResetWarning,0824.0,5.00,000.00,031.0,030.4,000.0,039.3,032.7,015.6,0003.7,0008.94,0014.12,0008.25
2024-06-16 12:36:00,SystemResetWarning,0824.1,5.00,000.00,031.1,030.4,000.0,039.4,032.7,015.6,0003.5,0008.95,0014.06,0008.25
2024-06-16 12:37:00,SystemResetWarning,0824.1,5.00,000.00,031.1,030.4,000.0,039.4,032.7,015.6,0003.5,0008.95,0013.64,0008.25
2024-06-16 12:38:00,SystemResetWarning,0824.2,5.01,000.00,031.1,030.4,000.0,039.4,032.7,015.5,0003.5,0009.00,0014.62,0008.26
2024-06-16 12:39:00,SystemResetWarning,0824.2,5.01,000.00,031.1,030.4,000.0,039.4,032.7,015.5,0003.9,0009.01,0015.55,0008.25
2024-06-16 12:40:00,SystemResetWarning,0824.1,4.99,000.00,031.1,030.4,000.0,039.4,032.7,015.5,0003.9,0009.08,0015.69,0008.26
2024-06-16 12:41:00,SystemResetWarning,0824.1,4.99,000.00,031.1,030.4,000.0,039.4,032.8,015.5,0003.6,0009.13,0015.81,0008.26
2024-06-16 12:42:00,SystemResetWarning,0824.1,5.00,000.00,031.1,030.4,000.0,039.4,032.8,015.9,0003.6,0009.17,0015.89,0008.26
2024-06-16 12:43:00,SystemResetWarning,0824.1,5.02,000.00,031.1,030.5,000.0,039.4,032.8,015.8,0004.3,0009.19,0015.88,0008.27
2024-06-16 12:44:00,SystemResetWarning,0824.1,5.00,000.00,031.1,030.5,000.0,039.5,032.8,016.3,0004.6,0009.23,0016.03,0008.29
2024-06-16 12:45:00,SystemResetWarning,0824.1,4.99,000.00,031.2,030.5,000.0,039.5,032.8,016.1,0004.8,0009.26,0015.95,0008.33
2024-06-16 12:46:00,SystemResetWarning,0824.1,4.99,000.00,031.2,030.5,000.0,039.5,032.8,016.4,0004.7,0009.28,0016.11,0008.35
2024-06-16 12:47:00,SystemResetWarning,0824.1,5.00,000.00,031.2,030.5,000.0,039.5,032.8,016.2,0004.9,0009.34,0016.42,0008.39
2024-06-16 12:48:00,SystemResetWarning,0824.1,5.00,000.00,031.2,030.5,000.0,039.5,032.8,016.1,0004.8,0009.39,0016.46,0008.43
2024-06-16 12:49:00,SystemResetWarning,0824.2,5.00,000.00,031.2,030.5,000.0,039.5,032.9,016.4,0004.5,0009.42,0015.98,0008.46
2024-06-16 12:50:00,SystemResetWarning,0824.1,5.01,000.00,031.2,030.5,000.0,039.5,032.9,015.9,0004.5,0009.44,0015.60,0008.49
2024-06-16 12:51:00,SystemResetWarning,0824.1,5.00,000.00,031.2,030.6,000.0,039.5,032.9,015.9,0004.4,0009.44,0015.68,0008.53
2024-06-16 12:52:00,SystemResetWarning,0824.2,5.00,000.00,031.3,030.6,000.0,039.6,032.9,015.8,0004.5,0009.45,0016.39,0008.55
2024-06-16 12:53:00,SystemResetWarning,0824.2,4.99,000.00,031.2,030.0,000.0,039.6,032.6,015.8,0004.6,0009.39,0016.51,0008.54
2024-06-16 12:54:00,SystemResetWarning,0824.1,5.00,000.00,030.8,027.5,000.0,039.6,031.4,016.2,0004.5,0009.33,0017.32,0008.53
2024-06-16 12:55:00,SystemResetWarning,0824.0,5.02,000.00,030.3,026.3,000.0,039.6,030.7,016.5,0004.3,0009.34,0017.50,0008.55
2024-06-16 12:56:00,SystemResetWarning,0824.0,5.00,000.00,030.1,026.7,000.0,039.4,030.8,016.9,0004.1,0009.37,0017.60,0008.55
2024-06-16 12:57:00,SystemResetWarning,0824.0,5.00,000.00,030.1,027.2,000.0,039.2,031.0,017.1,0003.9,0009.37,0017.57,0008.54
2024-06-16 12:58:00,SystemResetWarning,0824.2,4.99,000.00,030.1,027.6,000.0,039.1,031.3,016.9,0004.0,0009.32,0017.87,0008.52
2024-06-16 12:59:00,SystemResetWarning,0824.2,5.00,000.00,030.1,028.0,000.0,039.0,031.4,017.1,0004.0,0009.27,0018.11,0008.49
